Location: Fiennes
(50.8274°N, 1.8253°E)
Time: 01:05:44
(UTC+00:00)

Helios 1B rocket - Pass Details

Date: 15 May 2026
Orbit: 459 x 465 km, 98.2° (Epoch: 9 June)

Event Time Altitude Azimuth Distance (km) Brightness Sun altitude
Exits shadow 23:00:16 43° 231° (SW) 671 2.5 -19.3°
Maximum altitude 23:00:45 47° 259° (W) 635 2.6 -19.3°
Drops below altitude 10° 23:04:10 10° 335° (NNW) 1,642 5.9 -19.4°
Sets 23:06:17 0° 341° (NNW) 2,524 7.3 -19.5°
